SCP
0 0 0 0 0 0 0 0 0 0 0 0 0 0 0 0 0 0 0 0 0 0 0 0 0 0 0 0 0 0 0 0 0 0 0 0 0 0 0 0 0 0 0
0 0 0 0 0 0 0 0 0 0 0 0 0 0 0 0 0 0 0 0 0 0 0 0 0 0 0 0 0 0 0 0 0 0 0 0 0 0 0 0 0 0 0
0 0 0 0 0 0 0 0 0 0 0 0 0 0 0 0 0 0 0 0 0 0 0 0 0 0 0 0 0 0 0 0 0 0 0 0 0 0 0 0 0 0 0
0 0 0 0 0 0 0 0 0 0 0 0 0 0 0 0 0 0 0 0 0 0 0 0 0 0 0 0 0 0 0 0 0 0 0 0 0 0 0 0 0 0 0
0 0 0 0 0 0 0 0 0 0 0 0 0 0 0 0 0 0 0 0 0 0 0 0 0 0 0 0 0 0 0 0 0 0 0 0 0 0 0 0 0 0 0
0 0 0 0 0 0 0 0 0 0 0 0 0 0 0 0 0 0 0 0 0 0 0 0 0 0 0 0 0 0 0 0 0 0 0 0 0 0 0 0 0 0 0
0 0 0 0 0 0 0 0 0 0 0 0 0 0 0 0 0 0 0 0 0 0 0 0 0 0 0 0 0 0 0 0 0 0 0 0 0 0 0 0 0 0 0
0 0 0 0 0 0 0 0 0 0 0 0 0 0 0 0 0 0 0 0 0 0 0 0 0 0 0 0 0 0 0 0 0 0 0 0 0 0 0 0 0 0 0
0 0 0 0 0 0 0 0 0 0 0 0 0 0 0 0 0 0 0 0 0 0 0 0 0 0 0 0 0 0 0 0 0 0 0 0 0 0 0 0 0 0 0
0 0 0 0 0 0 0 0 0 0 0 0 0 0 0 0 0 0 0 0 0 0 0 0 0 0 0 0 0 0 0 0 0 0 0 0 0 0 0 0 0 0 0
0 0 0 0 0 0 0 0 0 0 0 0 0 0 0 0 0 0 0 0 0 0 0 0 0 0 0 0 0 0 0 0 0 0 0 0 0 0 0 0 0 0 0
0 0 0 0 0 0 0 0 0 0 0 0 0 0 0 0 0 0 0 0 0 0 0 0 0 0 0 0 0 0 0 0 0 0 0 0 0 0 0 0 0 0 0
0 0 0 0 0 0 0 0 0 0 0 0 0 0 0 0 0 0 0 0 0 0 0 0 0 0 0 0 0 0 0 0 0 0 0 0 0 0 0 0 0 0 0
0 0 0 0 0 0 0 0 0 0 0 0 0 0 0 0 0 0 0 0 0 0 0 0 0 0 0 0 0 0 0 0 0 0 0 0 0 0 0 0 0 0 0
0 0 0 0 0 0 0 0 0 0 0 0 0 0 0 0 0 0 0 0 0 0 0 0 0 0 0 0 0 0 0 0 0 0 0 0 0 0 0 0 0 0 0
0 0 0 0 0 0 0 0 0 0 0 0 0 0 0 0 0 0 0 0 0 0 0 0 0 0 0 0 0 0 0 0 0 0 0 0 0 0 0 0 0 0 0
0 0 0 0 0 0 0 0 0 0 0 0 0 0 0 0 0 0 0 0 0 0 0 0 0 0 0 0 0 0 0 0 0 0 0 0 0 0 0 0 0 0 0
0 0 0 0 0 0 0 0 0 0 0 0 0 0 0 0 0 0 0 0 0 0 0 0 0 0 0 0 0 0 0 0 0 0 0 0 0 0 0 0 0 0 0
0 0 0 0 0 0 0 0 0 0 0 0 0 0 0 0 0 0 0 0 0 0 0 0 0 0 0 0 0 0 0 0 0 0 0 0 0 0 0 0 0 0 0
0 0 0 0 0 0 0 0 0 0 0 0 0 0 0 0 0 0 0 0 0 0 0 0 0 0 0 0 0 0 0 0 0 0 0 0 0 0 0 0 0 0 0
0 0 0 0 0 0 0 0 0 0 0 0 0 0 0 0 0 0 0 0 0 0 0 0 0 0 0 0 0 0 0 0 0 0 0 0 0 0 0 0 0 0 0
0 0 0 0 0 0 0 0 0 0 0 0 0 0 0 0 0 0 0 0 0 0 0 0 0 0 0 0 0 0 0 0 0 0 0 0 0 0 0 0 0 0 0
0 0 0 0 0 0 0 0 0 0 0 0 0 0 0 0 0 0 0 0 0 0 0 0 0 0 0 0 0 0 0 0 0 0 0 0 0 0 0 0 0 0 0
0 0 0 0 0 0 0 0 0 0 0 0 0 0 0 0 0 0 0 0 0 0 0 0 0 0 0 0 0 0 0 0 0 0 0 0 0 0 0 0 0 0 0
0 0 0 0 0 0 0 0 0 0 0 0 0 0 0 0 0 0 0 0 0 0 0 0 0 0 0 0 0 0 0 0 0 0 0 0 0 0 0 0 0 0 0
0 0 0 0 0 0 0 0 0 0 0 0 0 0 0 0 0 0 0 0 0 0 0 0 0 0 0 0 0 0 0 0 0 0 0 0 0 0 0 0 0 0 0
Wind_Speed
3 5 7 6 7 7 8 8 9 9 9 9 9 9 9 9 9 9 8 8 8 8 8 8 8 8 8 8 7 7 7 7 6 6 6 7 6 6 6 4 2 4 5
4 5 7 7 7 8 8 8 9 9 9 10 10 10 10 10 9 9 9 9 8 8 8 8 8 8 8 8 7 7 7 6 6 5 4 5 7 7 6 6 7 5 5
5 6 6 7 7 8 8 9 9 9 10 10 10 11 11 10 10 9 8 9 9 8 9 9 8 9 8 8 8 8 8 6 5 3 0 4 7 8 7 7 8 8 7
6 6 7 8 7 8 8 9 9 10 10 10 10 11 11 11 11 10 9 9 9 9 9 9 9 9 8 8 9 8 8 7 4 2 2 5 6 9 8 8 8 9 9
6 6 8 7 7 8 8 9 10 10 10 10 10 11 11 11 10 10 10 10 10 10 10 10 9 9 9 9 9 9 9 7 3 3 6 6 6 8 9 9 8 8 8
6 6 8 7 8 8 8 9 10 10 10 10 10 10 11 11 10 10 10 10 10 10 10 10 10 10 9 9 9 9 9 7 4 6 6 6 6 9 9 8 8 8 8
6 6 8 8 8 8 8 9 9 9 10 10 10 11 11 11 11 10 10 10 10 11 10 10 10 9 9 9 9 9 8 6 5 6 6 6 8 9 8 8 8 8 7
6 6 7 8 7 7 8 8 9 9 9 10 10 11 11 11 12 12 12 11 11 11 11 10 10 9 9 9 9 8 7 6 5 6 6 7 9 8 8 8 8 7 7
6 6 5 6 6 7 8 8 8 9 9 10 10 11 11 11 11 12 12 11 11 11 11 10 10 10 9 9 9 8 7 6 5 5 6 6 9 8 8 8 8 7 7
6 5 5 5 5 5 6 7 8 9 9 9 9 9 8 9 9 9 10 11 11 10 10 10 9 9 9 9 8 7 4 2 6 6 5 8 10 9 9 8 8 8 8
5 5 4 4 5 5 5 6 6 7 7 6 7 6 4 5 7 7 11 10 10 10 9 9 9 8 6 7 7 4 2 3 6 5 6 9 9 9 9 9 9 9 8
5 5 4 4 4 4 4 3 3 4 4 4 5 5 4 5 5 6 8 9 9 8 8 8 6 4 2 3 4 1 2 4 4 4 6 9 8 7 7 8 8 9 8
4 4 4 3 4 4 3 3 2 2 3 4 5 5 4 4 3 4 3 4 4 4 5 4 3 4 4 4 3 3 4 4 3 4 6 8 7 6 7 7 7 8 7
4 4 4 3 3 3 3 3 2 2 2 3 3 5 4 3 3 4 3 4 3 3 4 4 3 5 4 4 4 4 4 3 3 3 5 8 7 7 7 7 7 7 7
4 3 3 3 3 3 3 2 2 3 3 3 3 3 4 3 4 3 3 3 4 3 3 3 4 5 4 4 4 4 4 4 4 4 4 7 7 7 7 7 7 8 7
3 3 3 3 3 3 3 2 2 2 2 2 3 3 4 3 3 3 3 3 3 3 3 3 4 3 3 3 4 4 4 4 4 3 3 4 6 6 6 7 7 7 7
3 3 3 2 2 2 2 2 2 2 2 2 2 2 3 3 3 3 3 3 3 3 3 3 4 3 3 3 3 4 3 3 3 3 3 2 3 5 6 6 6 6 7
3 3 4 2 2 3 2 2 2 2 2 2 2 2 3 3 3 3 3 3 3 2 2 3 3 3 2 2 3 3 3 2 3 3 2 2 2 2 4 6 6 6 6
3 3 4 3 3 3 3 2 2 2 2 2 1 1 2 2 2 2 2 2 2 2 2 2 3 3 3 3 2 2 2 2 2 2 2 3 3 2 2 4 4 5 6
3 3 3 4 3 3 2 2 2 2 2 2 1 1 2 1 2 2 1 2 2 1 2 2 2 2 2 2 2 2 2 2 1 1 2 2 2 3 2 2 1 3 4
3 3 3 4 3 3 2 1 1 1 1 1 1 2 2 1 1 1 1 1 1 1 2 2 2 2 2 2 2 2 1 0 1 1 1 1 2 3 2 2 1 2 2
4 4 4 4 3 3 2 1 1 1 1 1 1 1 1 2 1 1 1 1 1 1 1 2 1 1 1 2 3 2 1 1 1 1 1 1 2 2 2 2 2 1 1
5 5 4 4 4 3 3 2 2 2 1 1 0 0 1 1 1 1 1 1 1 1 1 1 1 1 2 1 2 3 3 2 2 0 1 1 2 2 2 2 2 2 1
5 5 4 4 4 3 3 3 3 1 1 0 1 0 1 1 1 1 1 2 1 1 1 1 1 2 2 2 1 2 3 3 3 2 1 1 1 2 2 2 2 2 1
5 4 4 4 4 4 3 3 3 2 1 0 0 1 1 1 1 1 1 1 2 1 1 1 1 2 2 3 2 2 2 2 4 4 3 2 2 1 2 2 2 2 1
5 4 4 4 4 4 3 4 3 2 2 1 1 1 1 1 1 1 1 2 2 2 2 2 2 2 3 3 3 3 3 3 3 3 4 3 3 2 2 2 2 1 1
Wind_Direction
56 58 60 47 58 58 60 63 65 65 65 64 62 64 67 69 67 72 76 77 77 78 79 79 77 74 74 72 69 65 64 61 61 62 69 71 67 65 60 53 36 90 89
66 68 69 60 62 60 61 64 69 66 64 62 62 64 64 64 67 69 71 72 74 76 76 76 72 70 68 65 63 61 60 56 54 58 67 88 74 63 58 46 27 48 64
73 73 81 66 65 65 63 66 68 67 66 65 64 62 62 66 71 72 72 72 70 72 75 73 73 67 63 61 58 56 51 44 44 41 342 78 80 68 59 54 50 49 58
76 70 68 66 63 65 64 67 67 67 67 66 64 63 62 64 68 71 72 73 71 72 73 70 68 68 63 59 57 53 42 37 33 336 58 55 65 67 58 58 54 54 60
82 76 75 62 65 65 63 65 67 68 69 69 67 65 63 62 65 67 68 70 72 72 71 67 65 67 63 61 58 53 43 41 38 50 56 54 60 65 58 56 55 57 66
89 84 82 69 69 67 64 65 68 68 68 69 69 68 65 62 64 67 68 69 71 72 68 65 62 63 65 63 60 55 46 31 34 55 53 53 59 64 57 56 57 58 66
89 86 88 75 70 70 68 65 66 68 66 67 68 68 66 63 61 66 67 66 67 70 67 64 61 60 63 63 62 58 49 17 39 55 54 52 55 58 55 53 56 61 63
90 88 92 90 76 71 70 66 65 67 66 66 67 68 67 65 63 62 62 63 64 65 65 64 62 60 62 62 64 60 46 4 52 52 56 56 52 54 52 50 54 59 63
90 89 89 93 97 89 75 67 67 66 65 66 66 68 68 69 67 63 63 62 64 64 63 62 60 57 59 61 64 61 52 19 36 46 50 53 50 47 48 47 54 55 56
91 84 81 83 84 91 92 80 76 72 67 68 67 67 71 80 79 72 69 64 63 63 61 60 59 58 59 61 60 59 45 13 49 47 44 53 50 45 46 47 50 50 50
92 88 85 76 75 76 80 89 90 88 77 84 85 81 80 75 72 74 62 61 61 59 59 58 58 60 63 77 67 44 359 44 53 48 46 45 42 43 44 45 48 48 46
97 92 90 85 82 80 76 85 75 76 76 63 67 68 60 58 57 59 76 66 63 60 65 61 57 68 43 67 80 61 42 48 47 55 55 43 37 40 44 45 46 45 46
99 88 80 78 80 80 78 71 69 66 65 62 58 61 58 61 66 60 68 80 72 64 55 63 51 40 40 44 32 39 40 36 45 50 55 47 45 46 44 44 45 44 45
104 96 85 82 84 80 80 79 84 81 74 68 61 56 53 54 50 51 50 49 45 42 36 35 35 42 39 46 44 41 45 40 42 52 57 44 45 46 44 42 41 42 42
110 102 94 87 88 85 78 76 87 82 74 78 65 57 56 50 51 50 52 49 43 37 34 34 35 38 32 35 36 34 37 43 45 45 68 59 45 39 41 42 42 42 41
126 116 106 103 97 96 96 92 80 82 88 80 76 67 61 57 53 46 49 46 42 35 31 31 37 34 31 33 32 33 34 40 46 44 52 73 64 44 37 41 43 41 40
139 133 114 111 111 105 92 80 78 82 90 84 77 63 59 52 51 48 43 46 42 39 40 37 39 33 39 36 33 29 32 29 30 36 39 37 64 71 50 38 39 37 37
137 132 119 118 121 109 96 89 95 95 89 82 71 53 53 51 49 48 43 42 39 36 33 33 25 26 30 24 19 19 22 22 21 17 20 32 29 41 68 50 37 32 34
150 143 131 125 122 112 102 96 88 96 89 80 72 58 49 47 40 52 41 31 34 30 28 24 23 9 16 10 3 3 8 7 5 4 14 21 35 33 51 77 61 39 31
154 152 137 126 127 118 116 113 99 93 89 80 63 42 38 33 39 48 39 28 23 17 21 23 24 14 6 354 347 350 356 356 353 15 11 24 23 30 32 36 64 77 51
161 163 148 140 141 136 136 142 123 116 104 87 58 32 24 13 20 48 14 21 3 356 2 9 13 9 12 356 333 342 10 8 16 37 18 13 34 28 21 17 21 28 76
174 176 167 158 152 148 153 147 134 125 119 84 71 53 21 12 6 13 358 4 4 343 358 14 18 344 5 346 329 323 316 176 66 21 355 357 2 6 358 3 18 12 6
188 189 183 170 161 160 157 136 128 122 113 114 118 88 359 358 359 343 330 336 336 316 350 337 326 327 323 324 330 327 319 343 339 198 358 346 359 339 327 326 339 346 351
194 193 194 182 169 161 161 157 159 165 180 265 280 220 256 292 323 328 325 312 307 317 308 292 303 296 290 297 305 305 311 327 298 301 262 334 341 330 319 307 312 314 331
189 190 196 187 175 166 176 174 196 197 211 222 255 281 268 264 275 282 295 289 295 296 294 297 288 287 276 286 292 286 292 284 276 286 292 301 296 317 319 307 307 303 296
178 181 186 186 183 177 187 194 205 200 206 210 247 273 273 268 264 252 262 272 281 288 289 284 271 273 281 279 278 279 280 283 290 286 288 292 305 320 310 304 293 295 281